Location: Moscow
(38.8570°N, 84.2291°W)
Time: 19:44:29
(UTC+00:00)

Cosmos 2151 Rocket - Pass Details

Date: 15 November 2025
Orbit: 611 x 636 km, 82.5° (Epoch: 12 December)

Event Time Altitude Azimuth Distance (km) Brightness Sun altitude
Rises 23:24:06 0° 164° (SSE) 2,907 7.0 -12.1°
Reaches altitude 10° 23:26:28 10° 155° (SSE) 2,008 6.1 -12.5°
Maximum altitude 23:30:29 34° 91° (E) 1,048 4.2 -13.3°
Drops below altitude 10° 23:34:33 10° 26° (NNE) 2,029 5.8 -14.1°
Enters shadow 23:35:07 - 24° (NNE) 2,240 6.1 -14.2°
